CAPE
9 84 906 1030 945 791 801 663 561 548 401 181 69 33 19 12 13 10 5 3 6 5 3 4 4 3 2 0 0 0 0 0 0 0 8 154 161 250 214 203 528 298 524
10 120 1351 1425 986 926 938 593 419 316 249 25 11 14 18 10 4 10 10 6 2 1 1 3 3 3 2 0 0 0 0 0 0 0 0 6 19 11 11 7 17 46 77
55 216 740 1290 1327 1040 637 455 427 109 13 12 19 17 10 9 8 6 5 4 1 1 4 2 2 2 1 0 0 0 0 0 0 0 0 7 4 9 9 8 7 8 10
58 505 463 1239 1187 796 529 326 130 13 6 16 14 6 8 8 4 4 3 2 2 4 0 1 2 0 0 0 0 0 0 0 0 0 0 0 0 6 7 9 7 6 8
253 346 575 1068 977 734 480 195 17 14 14 6 10 8 7 7 6 6 3 2 3 1 1 1 1 0 0 0 0 0 0 0 0 0 0 0 1 10 10 6 2 4 4
369 303 675 867 758 645 330 16 19 14 13 15 8 12 9 5 8 5 3 5 1 1 1 0 0 0 0 0 0 0 0 0 0 0 0 0 0 9 8 5 5 2 3
374 489 438 630 535 287 45 20 17 14 14 13 13 11 6 8 5 6 4 4 1 0 0 0 0 0 0 0 0 0 0 0 0 0 0 0 1 10 8 7 5 4 2
421 333 317 309 273 99 23 25 23 16 17 11 10 11 8 9 7 6 3 1 0 0 0 0 0 0 0 0 0 0 0 0 0 0 0 0 5 9 12 8 5 4 4
211 148 111 69 46 24 29 34 35 20 12 8 13 11 8 9 6 4 2 0 0 0 0 0 0 0 0 0 0 0 0 0 0 0 0 0 8 9 11 11 11 10 8
56 23 21 0 0 5 19 34 29 28 21 15 17 17 19 12 2 2 0 0 0 0 0 0 0 0 0 0 0 0 0 0 0 0 0 0 3 13 4 4 4 4 2
36 2 0 0 0 8 19 24 29 23 17 23 16 10 2 0 0 0 0 0 0 0 0 0 0 0 0 0 0 0 0 0 0 0 0 0 7 7 4 3 3 3 4
15 0 0 0 0 6 9 12 19 9 6 4 2 0 0 0 0 0 0 0 0 0 0 0 0 0 0 0 0 0 0 0 0 0 0 1 2 2 3 2 2 3 2
50 6 0 0 0 4 1 7 20 16 11 1 0 0 0 0 0 0 0 0 0 0 0 0 0 0 0 0 0 0 0 0 0 0 0 0 0 0 1 1 1 1 1
5 0 0 0 0 6 9 14 8 8 3 0 0 0 0 0 0 0 0 0 0 0 0 0 0 0 0 0 0 0 0 0 0 0 0 0 0 0 0 0 0 1 1
3 0 0 0 0 10 13 7 6 1 0 0 0 0 0 0 0 0 0 0 0 0 0 0 0 0 0 0 0 0 0 0 0 0 0 0 0 0 0 0 0 0 0
15 0 0 0 3 10 8 1 1 0 0 0 0 0 0 0 0 0 0 0 0 0 0 0 0 0 0 0 0 0 0 0 0 0 0 0 0 0 0 0 0 0 0
40 1 0 1 5 7 4 0 0 0 0 0 0 0 0 0 0 0 0 0 0 0 0 0 0 0 0 0 0 0 0 0 0 0 0 0 0 0 0 0 0 0 0
33 1 0 2 8 8 3 0 0 0 0 0 0 0 0 0 0 0 0 0 0 0 0 0 0 0 0 0 0 0 0 0 0 0 0 0 0 0 0 0 0 0 0
42 4 2 1 11 5 6 0 0 0 0 0 0 0 0 0 0 0 0 0 0 0 0 0 0 0 0 0 0 0 0 0 0 0 0 0 0 0 0 0 0 0 0
24 8 0 3 7 8 6 0 0 0 0 0 0 0 0 0 0 0 0 0 0 0 0 0 0 0 0 0 0 0 0 0 0 0 0 0 0 0 0 0 0 0 0
2 4 0 0 2 7 1 0 0 0 0 0 0 0 0 0 0 0 0 0 0 0 0 0 0 0 0 0 0 0 0 0 0 0 0 0 0 0 0 0 0 0 0
0 0 0 0 0 5 0 0 0 0 0 0 0 0 0 0 0 0 0 0 0 0 0 0 0 0 0 0 0 0 0 0 0 0 0 0 0 0 0 0 0 0 0
5 0 0 0 0 2 0 0 0 0 0 0 0 0 0 0 0 0 0 0 0 0 0 0 0 0 0 0 0 0 0 0 0 0 0 0 0 0 0 0 0 0 0
0 0 0 2 0 1 0 0 0 0 0 0 0 0 0 0 0 0 0 0 0 0 0 0 0 0 0 0 0 0 0 0 0 0 0 0 0 0 0 0 0 0 0
0 0 0 1 0 0 0 0 0 0 0 0 0 0 0 0 0 0 0 0 0 0 0 0 0 0 0 0 0 0 0 0 0 0 0 0 0 0 0 0 0 0 0
0 0 4 5 1 0 3 0 0 0 0 0 0 0 0 0 0 0 0 0 0 0 0 0 0 0 0 0 0 0 0 0 0 0 0 0 0 0 0 0 0 0 0
CIN
-134 -135 0 0 0 0 0 0 -1 0 0 -2 -20 -16 0 0 0 0 0 0 0 0 0 0 0 0 0 0 0 0 0 0 0 0 -58 -79 -73 -35 -40 -30 -2 -21 -7
-94 -103 0 0 0 0 0 0 0 -5 -3 0 0 0 0 0 0 0 0 0 0 0 0 0 0 0 0 0 0 0 0 0 0 0 -1 -5 -16 0 0 -3 -28 -116 -55
-55 -20 0 0 0 0 0 0 0 -1 0 0 0 0 0 0 0 0 0 0 0 0 0 0 0 0 0 0 0 0 0 0 0 0 0 0 0 0 0 0 0 0 -1
-68 -4 -10 0 -1 0 0 0 -24 0 0 0 0 0 0 0 0 0 0 0 0 0 0 0 0 0 0 0 0 0 0 0 0 0 0 0 0 0 0 0 0 0 0
-14 -2 -1 0 0 0 -1 -8 -1 -1 0 0 0 0 0 0 0 0 0 0 0 0 0 0 0 0 0 0 0 0 0 0 0 0 0 0 0 0 0 0 0 0 0
-7 0 -3 0 0 0 0 -4 0 0 0 0 0 0 0 0 0 0 0 0 0 0 0 0 0 0 0 0 0 0 0 0 0 0 0 0 0 0 0 0 0 0 0
-2 -4 0 -1 -1 -1 -19 0 0 0 0 0 0 0 0 0 0 0 0 0 0 0 0 0 0 0 0 0 0 0 0 0 0 0 0 0 0 0 0 0 0 0 0
-1 -1 0 -1 -1 -3 0 0 0 0 0 0 0 0 0 0 0 0 0 0 0 0 0 0 0 0 0 0 0 0 0 0 0 0 0 0 0 0 0 0 0 0 0
-7 -22 -12 -15 -11 -2 0 0 0 0 0 0 0 0 0 0 0 0 0 0 0 0 0 0 0 0 0 0 0 0 0 0 0 0 0 0 0 0 0 0 0 0 0
-72 -75 -85 0 0 -2 0 -2 -1 0 0 0 0 0 0 0 0 0 0 0 0 0 0 0 0 0 0 0 0 0 0 0 0 0 0 0 0 0 0 0 0 0 0
-112 -55 0 0 0 0 0 -3 -3 -1 -1 -1 -1 -1 -1 0 0 0 0 0 0 0 0 0 0 0 0 0 0 0 0 0 0 0 0 0 0 0 0 0 0 0 0
-191 0 0 0 0 0 0 -7 0 0 0 0 0 0 0 0 0 0 0 0 0 0 0 0 0 0 0 0 0 0 0 0 0 0 0 0 0 0 0 0 0 0 0
-135 -125 0 0 0 -1 -3 -3 0 0 0 0 0 0 0 0 0 0 0 0 0 0 0 0 0 0 0 0 0 0 0 0 0 0 0 0 0 0 0 0 0 0 0
-155 0 -1 0 0 -1 -2 0 0 0 0 0 0 0 0 0 0 0 0 0 0 0 0 0 0 0 0 0 0 0 0 0 0 0 0 0 0 0 0 0 0 0 0
-165 0 -1 -2 0 0 0 0 0 0 0 0 0 0 0 0 0 0 0 0 0 0 0 0 0 0 0 0 0 0 0 0 0 0 0 0 0 0 0 0 0 0 0
-137 0 0 0 0 0 0 0 0 0 0 0 0 0 0 0 0 0 0 0 0 0 0 0 0 0 0 0 0 0 0 0 0 0 0 0 0 0 0 0 0 0 0
-158 -68 0 -1 0 0 0 0 0 0 0 0 0 0 0 0 0 0 0 0 0 0 0 0 0 0 0 0 0 0 0 0 0 0 0 0 0 0 0 0 0 0 0
-135 -58 -1 0 0 0 0 0 0 0 0 0 0 0 0 0 0 0 0 0 0 0 0 0 0 0 0 0 0 0 0 0 0 0 0 0 0 0 0 0 0 0 0
-172 -68 -1 -1 0 0 0 0 0 0 0 0 0 0 0 0 0 0 0 0 0 0 0 0 0 0 0 0 0 0 0 0 0 0 0 0 0 0 0 0 0 0 0
-189 0 -3 -2 -1 0 0 0 0 0 0 0 0 0 0 0 0 0 0 0 0 0 0 0 0 0 0 0 0 0 0 0 0 0 0 0 0 0 0 0 0 0 0
-143 0 0 0 0 0 0 0 0 0 0 0 0 0 0 0 0 0 0 0 0 0 0 0 0 0 0 0 0 0 0 0 0 0 0 0 0 0 0 0 0 0 0
0 0 0 -2 -1 0 0 0 0 0 0 0 0 0 0 0 0 0 0 0 0 0 0 0 0 0 0 0 0 0 0 0 0 0 0 0 0 0 0 0 0 0 0
-356 0 0 0 -1 -1 0 0 0 0 0 0 0 0 0 0 0 0 0 0 0 0 0 0 0 0 0 0 0 0 0 0 0 0 0 0 0 0 0 0 0 0 0
0 0 -1 0 0 0 0 0 0 0 0 0 0 0 0 0 0 0 0 0 0 0 0 0 0 0 0 0 0 0 0 0 0 0 0 0 0 0 0 0 0 0 0
0 0 0 0 -1 0 0 0 0 0 0 0 0 0 0 0 0 0 0 0 0 0 0 0 0 0 0 0 0 0 0 0 0 0 0 0 0 0 0 0 0 0 0
0 -100 0 0 0 0 0 0 0 0 0 0 0 0 0 0 0 0 0 0 0 0 0 0 0 0 0 0 0 0 0 0 0 0 0 0 0 0 0 0 0 0 0
Wind_Speed
14 18 18 19 21 20 19 19 19 19 19 19 18 18 17 17 16 16 15 15 15 14 15 15 16 15 17 15 16 15 15 14 13 13 18 20 20 20 20 20 19 17 21
16 20 19 20 21 20 19 19 19 19 18 17 17 17 17 16 15 15 15 14 14 14 14 15 17 15 16 14 16 15 15 13 13 11 6 17 18 18 19 19 19 18 20
16 18 20 20 19 19 21 21 20 20 18 18 18 16 16 16 16 16 15 14 14 14 15 15 16 16 14 14 16 16 15 13 11 8 9 11 13 17 17 17 18 18 19
17 17 20 20 19 21 23 22 20 20 19 18 18 16 16 16 15 15 15 14 15 15 14 15 15 16 14 15 16 16 16 13 11 10 8 10 13 16 17 17 18 18 17
13 16 17 20 21 23 22 21 20 19 19 18 18 16 16 16 15 15 15 15 16 15 14 15 15 15 15 16 15 15 15 13 10 11 12 11 10 14 16 16 16 17 17
12 13 21 22 22 21 20 20 20 19 18 18 18 16 16 16 16 15 16 15 16 15 14 14 15 14 15 16 14 15 15 11 10 10 10 13 12 14 15 15 15 15 16
12 16 19 21 21 20 21 20 20 19 19 18 17 16 16 17 16 16 16 15 16 15 15 14 13 14 16 16 14 14 15 12 11 10 11 11 11 15 15 14 14 15 15
12 15 16 19 20 20 19 19 19 20 18 18 17 16 16 18 17 16 16 16 15 15 14 13 12 14 15 16 14 14 11 8 10 10 11 10 13 14 15 14 15 15 16
10 12 13 14 16 18 18 18 19 20 19 18 16 17 17 17 16 16 17 16 15 15 14 12 12 14 15 16 14 14 12 11 10 9 10 8 14 15 15 15 15 15 16
9 11 12 13 14 14 14 17 18 18 17 18 16 16 14 16 16 16 17 15 15 14 12 11 12 14 15 15 12 10 6 9 9 9 9 8 12 16 16 15 15 15 14
11 11 12 13 13 13 14 13 16 17 17 17 15 16 14 10 12 12 15 14 15 13 12 11 11 13 15 14 10 7 5 6 8 8 7 10 14 15 15 15 15 15 15
15 14 13 13 14 15 11 13 15 13 12 12 12 14 9 10 9 12 12 14 14 13 11 10 9 6 5 5 5 6 5 6 6 8 6 13 14 14 14 15 15 15 15
16 11 14 14 13 15 13 10 7 7 8 9 13 9 9 9 9 8 7 6 6 7 5 5 4 5 7 5 5 5 5 5 5 6 8 13 13 12 14 15 16 15 16
16 15 16 16 14 14 12 10 9 9 9 8 9 10 8 6 6 7 5 6 5 4 5 3 4 6 6 6 5 6 5 4 4 5 8 11 12 11 13 13 14 15 15
17 16 16 15 15 13 14 10 10 10 9 9 9 10 7 7 6 7 6 6 5 5 4 3 5 5 5 4 4 4 5 5 4 4 5 9 11 9 10 11 13 15 15
18 18 17 16 17 14 12 14 9 9 10 10 9 8 9 8 7 6 5 5 5 5 4 3 4 4 4 2 4 4 3 3 3 4 4 6 8 6 7 10 11 14 15
19 18 19 18 18 17 15 14 11 9 9 9 8 12 12 9 10 9 6 6 6 5 6 5 4 2 3 2 3 3 2 2 3 4 4 3 3 6 2 7 12 15 15
18 20 19 18 20 19 16 13 10 11 9 8 9 9 12 11 11 8 6 6 6 5 5 4 4 2 1 0 1 3 2 3 3 4 4 3 2 3 1 5 9 14 14
21 20 20 21 21 18 17 13 12 12 10 9 9 9 12 12 12 8 7 6 7 5 5 4 3 1 0 0 1 2 1 3 4 4 5 2 2 1 2 7 9 13 13
19 19 18 16 19 19 13 13 9 10 9 9 9 9 14 10 11 8 7 8 6 5 5 4 3 2 1 2 3 3 2 3 3 4 5 3 1 1 2 5 5 7 15
19 19 21 20 22 16 14 14 12 12 11 10 9 12 12 10 11 10 7 8 6 6 6 5 3 3 1 3 4 4 4 3 4 3 3 2 1 1 3 4 4 4 6
24 24 22 22 22 19 14 12 11 11 10 9 9 11 13 13 11 9 9 8 8 5 7 6 4 2 2 3 3 3 3 3 3 4 1 1 1 2 4 5 6 7 7
25 26 25 26 24 21 18 13 11 10 8 9 11 11 12 13 12 10 11 8 8 6 6 5 4 4 2 0 2 3 2 1 2 3 3 1 2 2 4 4 6 7 8
23 21 23 23 24 21 22 18 20 16 15 12 12 10 11 14 12 11 10 9 9 6 7 5 4 3 1 3 1 2 3 3 2 2 3 4 3 6 4 4 5 7 8
20 23 22 23 22 22 22 20 17 17 13 11 11 16 14 12 13 12 11 10 9 6 7 6 5 4 1 1 2 2 0 2 1 2 3 3 4 2 4 3 6 5 6
19 20 20 23 23 24 23 23 23 23 19 15 15 14 12 11 11 12 12 10 9 8 8 7 5 5 4 2 1 2 2 1 2 3 3 4 7 4 5 7 4 4 4
Wind_Direction
150 148 167 170 159 157 152 146 143 134 127 123 121 114 110 102 102 99 100 98 93 90 89 87 83 76 74 68 66 64 63 58 57 51 65 55 58 55 51 48 48 51 49
162 151 162 159 161 154 149 145 138 127 122 122 114 107 111 115 111 105 101 98 96 92 92 88 84 77 73 68 69 66 62 58 51 33 52 74 51 54 51 49 50 51 49
158 155 161 159 157 151 147 142 132 125 124 119 119 121 122 117 111 106 106 101 95 94 88 86 83 78 72 70 70 67 63 57 50 14 360 80 66 50 51 50 48 49 48
159 153 159 157 153 150 144 136 131 130 124 127 126 129 122 118 114 112 108 103 100 91 90 85 84 80 77 71 69 69 65 60 44 22 49 58 64 44 42 44 45 44 44
146 158 146 154 150 146 139 138 130 127 135 137 131 129 125 122 119 114 107 104 97 94 90 87 83 82 79 74 71 73 72 68 42 67 59 43 47 46 41 40 42 43 41
162 160 140 147 147 140 136 127 137 140 138 134 131 130 128 124 118 116 108 104 99 96 92 88 87 82 78 73 70 70 76 68 66 66 62 59 51 47 44 41 43 44 43
164 146 144 147 136 132 128 142 144 142 137 135 133 134 130 125 120 115 112 108 99 97 92 88 87 84 77 71 64 70 74 58 77 69 66 55 50 47 44 39 40 43 42
146 149 142 138 134 132 145 148 146 140 140 134 136 137 132 125 122 117 114 105 101 98 92 88 86 83 79 77 67 65 65 66 78 76 70 60 47 50 47 42 41 42 41
140 134 139 136 134 140 148 148 145 141 139 137 141 136 131 123 120 120 110 106 102 98 96 96 92 86 81 78 74 68 66 60 75 65 67 54 45 51 48 41 38 40 39
142 139 137 140 142 147 152 146 140 137 138 139 142 129 123 118 120 117 109 108 106 102 102 101 96 91 84 79 75 78 81 66 77 76 62 48 53 53 45 40 35 32 33
152 147 146 148 149 153 153 143 134 135 136 129 126 121 135 132 128 130 103 112 109 105 105 104 101 98 101 89 71 66 45 61 70 70 61 52 57 49 43 40 34 31 30
165 160 155 159 161 157 147 147 152 142 148 152 149 156 141 138 117 110 108 115 110 107 106 111 111 119 105 82 101 63 59 73 70 77 61 58 49 44 44 36 30 26 21
169 164 167 164 176 161 144 163 159 157 158 150 160 156 145 114 125 124 129 131 129 158 142 152 106 67 68 75 78 72 64 72 85 86 65 60 47 39 40 34 25 17 14
177 172 170 168 174 168 144 177 157 167 162 154 169 161 151 144 145 144 152 143 141 135 127 118 92 85 74 65 64 73 69 73 85 98 77 61 46 36 38 30 21 11 7
183 178 177 168 170 177 160 172 167 165 156 166 166 165 154 152 157 147 150 147 130 138 125 117 94 96 89 82 68 73 77 85 90 100 101 76 48 40 31 21 15 7 360
186 181 179 179 172 175 168 167 162 165 170 166 163 168 164 156 147 140 144 135 133 117 122 102 87 92 92 88 103 85 84 103 98 113 95 109 75 53 24 13 2 358 354
192 179 183 181 177 175 174 168 171 161 168 165 160 166 168 158 149 151 148 146 134 131 125 117 105 136 122 152 121 119 130 132 137 133 123 78 114 146 38 351 354 349 347
188 187 182 185 185 175 179 168 168 171 166 166 157 167 166 161 154 154 152 141 141 158 128 122 124 154 111 331 177 145 164 170 165 167 152 77 69 357 291 350 334 338 337
189 187 186 190 188 176 179 176 169 165 170 162 165 166 167 162 163 153 151 140 152 153 131 125 113 320 194 230 296 207 227 191 182 183 169 130 102 346 347 336 327 324 326
185 186 189 186 187 179 176 174 164 164 170 166 170 167 169 165 167 154 145 153 150 152 130 135 131 95 17 334 276 239 195 192 189 209 191 192 111 314 317 330 321 317 325
189 185 188 184 192 181 179 176 170 172 176 171 166 166 166 163 169 159 150 158 156 160 138 140 140 159 108 337 266 193 186 204 218 203 193 228 305 323 325 311 308 320 308
188 188 184 187 193 187 180 178 174 173 173 163 160 165 167 170 169 165 157 166 160 148 140 151 178 140 88 347 317 277 208 172 186 210 262 268 329 334 313 310 316 308 304
193 188 185 185 190 186 176 171 168 162 157 166 171 165 177 171 170 168 169 159 155 158 148 159 170 183 168 132 347 317 245 38 336 112 196 219 222 308 292 311 302 306 299
194 190 187 189 188 186 180 177 178 174 173 180 171 163 171 170 173 173 169 159 159 162 141 158 160 154 221 194 196 21 41 19 357 308 187 208 205 259 280 289 302 302 296
189 192 189 186 189 188 185 184 180 178 180 168 168 164 167 170 175 176 168 166 161 158 145 150 156 169 191 196 247 183 206 104 78 282 295 308 302 304 295 280 292 289 290
192 194 188 190 190 189 188 189 187 184 174 169 171 169 168 172 173 174 173 168 166 152 147 150 160 165 160 193 181 236 241 210 170 226 271 301 303 290 316 288 264 268 270